Location: Carite
(10.3909°N, 67.0102°W)
Time: 01:41:39
(UTC+00:00)

Sakura Rocket - Pass Details

Date: 08 September 2024
Orbit: 475 x 1709 km, 28.7° (Epoch: 06 October)

Event Time Altitude Azimuth Distance (km) Brightness Sun altitude
Rises 23:29:10 0° 294° (WNW) 4,509 9.0 -14.6°
Reaches altitude 10° 23:32:38 10° 291° (WNW) 3,350 8.1 -15.5°
Maximum altitude 23:40:46 62° 213° (SSW) 1,159 4.5 -17.5°
Enters shadow 23:44:48 22° 138° (SE) 1,848 5.0 -18.4°
